Vertical_Velocity
-5 4 3 3 -1 0 2 -5 -4 0 -0 -1 -2 -1 -2 -2 -5 -4 -0 -4 -5 -4 -1 0 -1 -0 -4 -1 -6 1 -3 -2 2 1 -1 0 3 0 -1 0 -1 -1 -1 0 2 2 2 -1 -1 -0 1 -2 0 -2
-2 1 2 7 3 4 -1 -1 -2 -0 0 0 -3 -1 -2 -1 -5 -2 -4 -6 -6 -6 -4 -1 -3 -3 -5 -5 -4 -2 3 -4 -8 -6 -2 -0 2 2 1 -2 -2 0 -2 -0 0 2 1 -2 -1 -1 -3 -1 0 -0
-0 -0 2 3 9 0 2 -2 -3 0 -1 -2 -2 -0 -1 -8 -5 0 -4 -6 -7 -11 -3 -1 -6 -5 -3 -4 -4 -4 6 9 12 5 -1 -1 -2 0 2 1 -0 -3 -3 -1 -2 2 0 3 -1 -2 0 1 -0 0
1 2 4 9 2 -1 0 -0 -0 1 -0 -2 -3 -0 1 -4 -1 -2 -3 -6 -7 -9 -3 -4 -5 -1 1 0 -1 -2 -9 1 4 4 7 3 -2 -0 1 -0 4 -6 -4 -4 5 -1 4 -0 -0 0 2 1 -1 -1
-3 7 6 2 3 2 -1 1 -2 1 -0 -2 0 -2 -3 -4 -3 -2 -7 -3 -7 -6 -4 -2 -5 -2 -1 -1 -6 -1 -5 -4 -1 -2 3 1 6 2 -0 1 0 -7 3 -0 3 -3 -1 3 -4 -5 0 -2 -0 -1
1 3 4 5 1 0 1 -2 0 -1 -2 -2 -3 -2 -5 -3 -2 -6 -8 -5 -6 -6 -4 -3 -5 -3 -3 -2 -5 1 0 -6 -5 -7 -1 2 2 1 6 7 -4 -1 -4 -4 4 -3 1 5 -1 -8 -2 -3 -2 -0
7 9 8 -1 0 5 3 -4 2 -1 -2 -3 -3 -2 -3 -2 -3 -7 -8 -6 -7 -6 -3 -2 -3 -1 -2 -1 -3 -4 -3 4 7 6 -1 -2 1 1 0 -2 -1 -2 2 -3 -6 1 1 -4 9 -2 -6 -3 -3 2
7 10 2 -1 10 4 2 3 1 -3 -5 -2 -2 -4 -5 -1 -2 -9 -9 -6 -7 -6 -4 -3 -3 -4 -3 -4 -2 -1 -6 -3 1 2 6 5 -2 -2 -4 2 -2 -0 4 -3 -3 -8 -7 9 -4 -1 -5 -7 4 -3
17 8 3 0 -0 8 1 4 1 -4 -2 -4 -3 -5 -7 -2 -7 -8 -9 -8 -6 -3 -5 -7 -5 -2 -3 -2 -3 1 -6 -8 3 5 -8 -3 3 -0 5 5 3 -0 2 5 -0 -4 -2 1 -2 -12 -6 -0 11 2
17 3 2 4 6 6 3 1 -1 -3 -2 -3 -3 -1 -1 -3 -5 -6 -7 -7 -2 -4 -5 -5 -4 -5 -4 -5 -1 4 1 -5 -7 -3 1 -3 -3 2 3 3 3 1 1 -1 1 1 -2 -8 -17 -11 -6 9 17 14
2 4 4 5 8 4 4 2 -1 -4 -5 -1 -4 -1 3 -0 -4 -6 -6 -3 -4 -3 -2 -3 -3 -3 -4 -4 -6 -3 1 1 3 -3 5 15 -2 -3 -1 -0 -0 -1 0 1 -2 -2 -3 -4 -9 2 12 -7 28 35
12 0 1 8 9 5 2 1 2 -4 0 -3 -1 0 1 1 -2 -6 -6 -3 -5 -7 -3 -3 -1 -5 -1 -3 -2 -4 -2 -9 -8 -2 6 -7 -2 2 -0 1 1 -1 -3 -3 1 -1 -3 4 -12 1 7 16 4 13
4 2 5 10 7 5 3 0 -1 2 -3 -0 0 3 -0 1 -2 -4 -4 -4 -3 -4 -2 -3 -3 -7 -3 -5 -3 -3 -7 -13 -9 -1 -8 -7 -5 -5 2 4 3 1 -0 -0 -3 -1 1 2 2 -5 1 8 6 3
3 7 10 5 3 5 1 2 -1 1 -4 -0 -0 3 -0 2 -1 -1 -3 -4 -2 -4 -2 -1 -2 -9 -6 -4 -6 -7 -11 -4 1 -6 -4 -2 -6 -0 -4 -2 1 -1 -1 3 -0 -4 -1 3 2 -0 -2 3 -0 0
8 8 7 4 4 3 0 1 5 -3 1 0 2 -1 2 -1 -0 -0 -1 -1 -1 -2 -0 -0 2 -6 -1 -5 -2 -3 -10 -5 -11 -16 -6 -9 2 -1 -0 -4 -1 -0 -5 -1 3 2 -2 2 3 -0 -0 1 1 11
6 6 2 6 4 4 2 1 -5 1 -3 -0 1 2 -1 -0 -1 -1 -2 -1 -0 -1 1 -0 4 -3 -3 -0 -1 0 -11 -4 -4 -6 -12 -12 -2 1 5 3 -5 -1 -3 -3 4 4 -0 1 3 3 3 -1 -2 8
16 11 2 4 2 3 3 -1 -1 -3 -1 1 2 -1 -0 1 -1 -1 -1 -0 -0 0 1 -3 -3 -1 2 -6 -5 -1 -4 -9 -4 -1 -0 -18 -13 -7 -2 7 0 -1 -5 -4 -2 7 5 3 4 3 1 8 3 14
4 7 -1 5 4 2 -0 1 -0 -4 -0 -2 -3 -4 -3 -2 1 0 -2 -2 -0 -1 3 -3 -3 6 -3 -2 2 -4 -6 -2 -6 -2 2 -1 -4 -2 -12 -6 1 -5 -0 -6 -2 1 8 5 4 2 1 7 3 8
12 7 -4 0 0 -0 -1 -1 -1 2 1 -2 -2 -2 -1 0 -1 -2 -7 -4 -1 2 5 -1 -1 -4 -2 -1 -2 5 1 -4 -4 5 10 5 -1 -2 -6 -1 -1 -3 -5 -4 -3 -1 3 10 2 4 5 2 -1 6
0 -1 4 -2 -5 -2 -2 -0 -1 4 1 0 1 -1 2 -2 -3 -4 -2 0 4 5 2 -11 2 3 0 1 -7 -1 1 2 1 -5 13 10 1 1 -5 -2 -0 -2 -6 -6 -0 0 -3 6 7 4 4 7 8 7
4 1 -0 -1 -4 -1 -0 -0 -1 2 2 -1 -5 -5 -2 -1 0 -2 -2 5 5 6 -13 -3 3 0 1 0 -4 -5 6 -6 8 -2 -5 8 6 4 2 -3 -3 -3 1 -2 -1 -0 -1 -1 4 7 6 6 7 2
2 0 5 3 2 1 -1 3 3 2 -5 -4 1 -4 -1 1 1 1 -5 -1 11 -4 -11 3 2 -1 4 2 6 6 -2 -0 2 2 -4 -3 6 2 1 0 5 2 -3 -3 2 1 0 0 1 5 5 5 7 6
-2 -4 -0 5 -4 -5 2 4 0 -4 -6 2 -1 -4 -2 0 3 -3 -2 13 -2 -10 -2 -2 -1 -5 -3 1 -1 -0 -6 2 2 -0 -1 -3 -5 7 5 4 1 2 3 -7 -1 1 1 2 -1 3 4 3 5 5
-2 -1 -0 -0 -2 3 2 3 -3 -5 -4 -1 -3 -1 0 -1 -2 -1 6 6 -13 -3 -4 -6 -3 -5 -3 -7 -7 -2 -8 -3 1 2 -3 -1 -3 -5 4 3 6 -2 -3 6 -3 2 3 0 1 -0 -0 1 2 2
-1 0 -1 -1 2 8 7 -0 -3 -2 -1 -0 -0 -2 -3 -3 -2 3 5 -10 -2 -4 -4 -3 -4 -5 -4 -0 3 2 -3 -8 -0 4 4 -5 -3 -4 5 0 2 6 -9 6 -1 2 4 2 1 3 1 1 -0 0
-5 -3 0 9 6 1 -2 -2 -0 -2 1 -3 -4 -2 0 -2 -0 -2 -10 -2 -2 -3 -2 4 -2 -6 -1 4 -2 -1 5 -4 -6 1 6 -6 -6 -5 -5 -3 -2 15 -14 7 3 0 3 4 3 1 1 1 2 1
-4 -3 4 5 1 -3 -2 -2 -3 0 -4 -5 3 -2 -7 -9 -4 2 -4 -7 -2 -1 7 5 1 1 -0 -1 0 5 3 3 -1 -4 4 6 5 -5 -8 -2 2 9 -2 1 0 -0 1 2 5 4 2 2 2 2
3 6 1 -3 -6 -4 -0 1 -2 -3 2 -3 -1 -7 -7 -3 5 -10 -7 -6 -6 -0 2 5 6 -4 -5 -3 -3 -3 -1 -2 -3 -7 -7 2 10 6 -1 -13 -2 4 3 -2 -2 -2 -1 1 2 2 3 2 0 3
6 -1 -10 -5 -2 -3 0 1 2 0 -3 -2 0 -2 -1 -1 -3 -6 2 -4 2 -2 -3 -6 6 -1 3 -0 1 -1 -3 -3 -4 -2 -2 -6 5 13 -11 2 2 -5 -4 -2 -4 -4 -4 0 1 1 1 2 -1 0
-1 -4 -2 -1 -1 -2 -1 -1 -0 -1 -2 -4 -7 -3 1 -3 1 -11 -8 -1 -3 -3 -1 2 -3 -3 -1 -4 2 9 0 -4 -5 -7 -5 1 1 7 -1 -3 3 2 -1 -1 -2 -3 1 3 2 2 0 0 -1 -0
-5 -4 2 -1 -1 -1 2 -2 0 -2 -2 -0 -3 -5 -7 -16 9 -1 -1 0 -2 -3 -3 1 0 -7 -2 -0 -3 1 9 -4 -4 -3 -3 -2 -4 -1 1 -4 -4 -1 -1 -2 -1 1 2 5 2 1 2 1 1 -1
-2 -3 1 0 -4 -5 -2 -5 0 -3 -2 0 3 1 -2 -14 -14 -8 -3 -5 -3 -3 -3 -5 -2 2 0 -1 -1 -1 0 3 0 -4 -3 1 0 -4 -3 -2 -1 -4 -6 -4 -4 -3 -1 -0 2 0 -0 -0 -0 1
-1 2 2 -4 -4 -3 -8 -7 -6 -1 1 3 4 -0 1 -5 -14 -4 2 -3 -4 -3 -2 -2 -2 0 -1 1 0 -0 1 1 2 0 0 -1 -1 -2 -3 -1 -2 -3 -3 -4 -4 -3 -4 -4 -2 -1 -1 -1 -1 -1
Height
5623 5632 5639 5644 5648 5651 5653 5656 5658 5662 5662 5660 5660 5658 5655 5654 5649 5645 5640 5633 5624 5610 5599 5589 5585 5584 5583 5580 5581 5583 5585 5589 5591 5593 5597 5600 5602 5604 5605 5606 5606 5607 5607 5608 5609 5610 5612 5611 5611 5612 5613 5612 5613 5613
5613 5621 5629 5636 5639 5643 5644 5648 5651 5655 5655 5654 5653 5652 5649 5648 5644 5641 5636 5630 5620 5610 5598 5590 5584 5582 5578 5576 5575 5577 5578 5583 5588 5590 5592 5595 5598 5599 5600 5602 5602 5603 5603 5604 5605 5606 5605 5605 5605 5605 5605 5606 5608 5608
5603 5612 5621 5627 5632 5634 5637 5638 5644 5647 5647 5646 5646 5645 5643 5642 5639 5636 5631 5624 5618 5608 5597 5588 5583 5580 5577 5575 5573 5572 5573 5576 5580 5585 5587 5589 5591 5593 5594 5597 5597 5597 5596 5597 5597 5599 5598 5599 5600 5599 5600 5601 5602 5603
5594 5604 5612 5619 5622 5625 5628 5631 5636 5638 5639 5640 5640 5640 5638 5636 5635 5631 5625 5619 5614 5605 5594 5589 5584 5580 5577 5576 5574 5572 5571 5571 5574 5577 5580 5583 5585 5587 5589 5590 5591 5590 5589 5589 5593 5594 5593 5593 5593 5593 5594 5595 5595 5596
5586 5596 5602 5608 5614 5616 5618 5624 5628 5630 5631 5633 5634 5633 5633 5631 5631 5626 5620 5614 5609 5603 5592 5586 5582 5581 5577 5574 5573 5570 5568 5569 5571 5573 5574 5576 5578 5580 5582 5583 5584 5583 5584 5583 5585 5585 5586 5587 5584 5583 5585 5587 5588 5589
5576 5586 5594 5600 5603 5606 5611 5617 5621 5623 5624 5626 5627 5627 5628 5627 5625 5622 5616 5610 5604 5598 5590 5585 5580 5578 5576 5573 5571 5570 5568 5567 5567 5567 5569 5569 5571 5574 5576 5576 5576 5577 5577 5577 5578 5578 5579 5580 5580 5576 5574 5577 5578 5580
5567 5576 5584 5589 5593 5599 5604 5608 5613 5615 5617 5620 5621 5622 5622 5622 5619 5616 5611 5606 5600 5595 5589 5583 5580 5577 5576 5574 5572 5571 5570 5569 5567 5566 5566 5567 5568 5568 5570 5572 5573 5573 5573 5571 5570 5570 5571 5568 5567 5568 5566 5565 5567 5569
5558 5568 5574 5580 5586 5590 5594 5600 5605 5607 5610 5614 5616 5616 5617 5614 5611 5610 5606 5602 5598 5594 5587 5582 5580 5576 5573 5571 5570 5570 5570 5568 5567 5566 5567 5567 5567 5567 5568 5569 5568 5567 5567 5564 5563 5561 5559 5556 5552 5549 5550 5551 5554 5557
5550 5558 5564 5571 5576 5582 5586 5592 5597 5600 5604 5608 5609 5611 5610 5608 5607 5606 5603 5599 5595 5593 5588 5583 5580 5576 5571 5567 5566 5566 5566 5566 5565 5564 5564 5564 5564 5563 5563 5562 5561 5559 5559 5558 5555 5550 5547 5541 5534 5528 5522 5527 5535 5541
5543 5551 5557 5563 5568 5573 5578 5584 5588 5593 5598 5603 5605 5608 5604 5604 5603 5602 5598 5596 5593 5591 5587 5584 5580 5575 5571 5564 5560 5561 5560 5561 5560 5560 5559 5559 5558 5557 5556 5555 5553 5552 5549 5547 5546 5541 5534 5526 5515 5500 5490 5496 5517 5529
5532 5541 5549 5555 5561 5565 5572 5578 5581 5586 5592 5596 5600 5601 5600 5599 5598 5597 5596 5595 5593 5591 5587 5584 5580 5576 5572 5567 5561 5557 5557 5557 5557 5558 5557 5553 5552 5552 5549 5547 5545 5543 5541 5539 5536 5533 5529 5522 5512 5495 5489 5503 5517 5522
5526 5534 5540 5547 5553 5559 5565 5570 5575 5580 5586 5591 5595 5594 5594 5595 5594 5594 5593 5592 5590 5588 5585 5582 5579 5576 5572 5568 5563 5561 5557 5556 5555 5552 5551 5551 5549 5547 5545 5542 5539 5537 5534 5532 5530 5527 5524 5521 5518 5513 5511 5512 5514 5517
5519 5525 5533 5539 5545 5552 5558 5563 5569 5575 5580 5585 5587 5588 5589 5590 5589 5589 5589 5588 5586 5584 5581 5578 5576 5574 5571 5567 5564 5561 5557 5555 5550 5549 5548 5547 5544 5541 5538 5535 5532 5530 5528 5525 5523 5521 5519 5517 5514 5513 5511 5511 5511 5514
5510 5519 5526 5532 5539 5547 5552 5558 5564 5570 5575 5579 5581 5582 5583 5583 5584 5584 5584 5583 5581 5578 5576 5573 5571 5569 5566 5563 5560 5557 5556 5551 5547 5545 5542 5539 5536 5532 5528 5525 5523 5521 5519 5518 5516 5514 5513 5511 5511 5510 5509 5509 5509 5510
5504 5512 5519 5526 5534 5541 5546 5552 5559 5564 5568 5571 5574 5575 5576 5577 5577 5578 5578 5577 5575 5573 5570 5567 5564 5563 5559 5556 5555 5552 5550 5545 5542 5539 5535 5532 5527 5523 5518 5515 5512 5510 5509 5509 5508 5507 5506 5504 5504 5506 5505 5505 5504 5504
5498 5505 5513 5522 5529 5535 5542 5548 5553 5558 5560 5564 5567 5568 5569 5570 5570 5571 5571 5570 5568 5566 5563 5560 5557 5553 5552 5549 5546 5542 5539 5537 5532 5530 5526 5521 5517 5512 5508 5504 5500 5498 5497 5497 5498 5498 5498 5497 5497 5499 5499 5500 5499 5501
5495 5505 5511 5518 5524 5531 5537 5543 5547 5550 5553 5556 5559 5560 5561 5562 5562 5563 5563 5563 5560 5558 5555 5550 5547 5543 5539 5536 5534 5530 5527 5524 5521 5516 5512 5505 5501 5497 5495 5491 5488 5487 5484 5484 5485 5486 5488 5488 5488 5490 5491 5491 5493 5494
5496 5501 5508 5517 5522 5527 5533 5537 5541 5543 5546 5549 5550 5552 5553 5555 5555 5555 5554 5553 5550 5547 5544 5540 5537 5533 5527 5524 5520 5514 5510 5507 5503 5499 5494 5485 5481 5480 5479 5477 5473 5472 5471 5470 5471 5472 5476 5477 5478 5480 5481 5482 5485 5487
5493 5499 5506 5512 5519 5524 5528 5533 5536 5538 5540 5541 5544 5546 5547 5548 5546 5544 5543 5542 5539 5536 5532 5529 5524 5519 5516 5511 5507 5502 5497 5490 5488 5483 5476 5465 5460 5460 5459 5458 5457 5456 5455 5456 5456 5458 5461 5465 5467 5469 5471 5474 5476 5478
5486 5494 5503 5509 5515 5519 5523 5527 5530 5532 5534 5536 5538 5538 5538 5536 5533 5532 5532 5531 5528 5525 5520 5517 5513 5507 5502 5497 5490 5486 5480 5473 5466 5461 5456 5447 5439 5438 5438 5439 5439 5440 5440 5441 5443 5445 5446 5451 5454 5457 5460 5463 5466 5468
5485 5492 5499 5505 5510 5516 5519 5522 5524 5526 5528 5529 5528 5527 5526 5525 5524 5523 5522 5519 5517 5511 5508 5504 5500 5495 5487 5482 5473 5467 5460 5451 5443 5432 5429 5428 5421 5419 5420 5422 5424 5425 5427 5428 5430 5432 5434 5437 5440 5445 5448 5451 5454 5458
5487 5492 5498 5502 5507 5511 5514 5517 5518 5519 5521 5521 5520 5518 5518 5517 5515 5513 5509 5508 5504 5496 5495 5492 5486 5480 5475 5466 5458 5447 5438 5429 5421 5414 5409 5408 5408 5408 5409 5411 5413 5414 5416 5418 5419 5421 5423 5426 5428 5432 5436 5439 5443 5446
5483 5488 5493 5499 5503 5506 5509 5509 5511 5511 5512 5512 5510 5509 5509 5508 5507 5502 5499 5497 5486 5484 5480 5476 5469 5463 5457 5449 5440 5430 5419 5412 5406 5400 5397 5395 5396 5400 5402 5403 5404 5406 5407 5408 5409 5410 5413 5415 5417 5419 5423 5427 5431 5434
5478 5483 5490 5495 5497 5499 5502 5503 5503 5504 5502 5501 5501 5501 5500 5497 5494 5491 5489 5479 5473 5469 5465 5458 5452 5445 5437 5429 5420 5411 5405 5401 5396 5391 5387 5386 5387 5388 5392 5394 5396 5396 5398 5400 5400 5401 5403 5405 5407 5409 5411 5414 5418 5422
5477 5481 5486 5488 5491 5493 5494 5495 5495 5494 5493 5493 5492 5490 5488 5485 5482 5480 5473 5465 5460 5455 5449 5441 5432 5425 5418 5412 5407 5402 5395 5392 5389 5386 5382 5377 5378 5380 5382 5383 5386 5388 5389 5391 5392 5392 5393 5395 5397 5399 5401 5403 5406 5409
5472 5475 5479 5482 5484 5485 5486 5486 5485 5485 5485 5484 5483 5479 5476 5473 5470 5465 5458 5455 5449 5442 5433 5424 5413 5407 5404 5397 5394 5394 5390 5384 5380 5378 5376 5370 5369 5370 5373 5375 5377 5380 5379 5382 5384 5384 5384 5386 5387 5389 5390 5393 5395 5397
5466 5469 5473 5475 5475 5477 5477 5477 5477 5477 5476 5474 5471 5467 5464 5460 5457 5452 5446 5441 5435 5427 5419 5407 5400 5394 5389 5386 5384 5380 5376 5372 5369 5368 5367 5365 5363 5362 5365 5366 5368 5370 5371 5373 5375 5376 5377 5377 5378 5379 5381 5382 5384 5386
5461 5463 5464 5466 5466 5467 5468 5468 5468 5466 5464 5462 5459 5454 5451 5447 5443 5437 5432 5427 5420 5412 5403 5396 5387 5378 5371 5365 5361 5358 5356 5353 5351 5352 5353 5354 5355 5354 5353 5356 5357 5360 5362 5364 5365 5367 5369 5370 5371 5371 5372 5373 5374 5376
5454 5455 5456 5456 5456 5457 5458 5458 5457 5455 5453 5449 5446 5442 5440 5436 5430 5425 5420 5410 5401 5394 5387 5380 5374 5364 5358 5351 5345 5338 5332 5327 5325 5329 5333 5338 5340 5342 5339 5343 5346 5348 5351 5354 5356 5359 5361 5363 5364 5364 5364 5365 5366 5367
5444 5444 5445 5447 5449 5450 5450 5449 5446 5443 5441 5438 5435 5432 5428 5424 5419 5409 5404 5395 5387 5381 5374 5366 5360 5354 5348 5342 5338 5333 5324 5316 5311 5309 5311 5317 5322 5325 5328 5330 5334 5337 5342 5345 5348 5350 5353 5354 5356 5357 5357 5358 5358 5359
5435 5437 5438 5438 5439 5439 5439 5438 5436 5434 5431 5427 5421 5418 5412 5412 5410 5398 5391 5384 5376 5369 5365 5359 5352 5345 5340 5334 5326 5321 5316 5309 5303 5299 5297 5299 5303 5308 5312 5317 5321 5325 5330 5334 5337 5341 5343 5344 5346 5347 5348 5349 5349 5349
5427 5428 5429 5430 5430 5430 5429 5428 5427 5426 5422 5417 5410 5404 5397 5391 5387 5387 5381 5374 5369 5364 5360 5354 5348 5342 5335 5328 5321 5313 5306 5300 5294 5289 5288 5287 5289 5293 5298 5304 5309 5315 5319 5323 5327 5330 5333 5335 5336 5337 5338 5338 5338 5339
5418 5419 5419 5419 5419 5419 5419 5419 5417 5416 5412 5406 5401 5394 5388 5382 5377 5376 5373 5368 5364 5360 5356 5350 5345 5340 5333 5326 5319 5311 5303 5296 5290 5286 5283 5281 5281 5283 5287 5293 5299 5305 5310 5314 5318 5321 5324 5325 5326 5326 5326 5326 5326 5326